RH
43 32 36 34 29 29 31 27 23 21 22 25 27 32 33 34 35 26 19 16 12 15 19 22 23 25 26 24 21 20 20 19 19 25 21 23 28 29 36 48 44 35 33
40 30 34 32 29 28 30 27 23 21 19 19 22 27 30 28 29 22 16 15 15 17 18 20 22 22 23 24 21 20 22 27 36 59 57 47 58 59 61 60 55 54 55
37 31 34 32 29 26 28 26 23 22 20 20 21 22 24 25 24 22 16 16 17 18 19 20 21 20 20 22 21 21 27 38 51 62 53 55 47 48 51 52 54 51 48
37 34 34 32 30 26 26 24 23 22 21 20 20 19 19 20 21 21 18 16 17 19 20 20 20 20 20 21 25 30 35 38 50 55 54 63 54 54 55 54 52 50 48
38 38 32 31 29 26 24 24 26 24 22 21 18 17 18 18 17 18 18 16 16 16 16 17 19 19 20 24 32 34 36 44 43 50 54 59 55 53 51 49 46 41 42
38 39 32 30 28 25 24 25 27 24 23 21 19 16 16 16 16 17 18 16 16 15 15 15 15 16 19 27 31 34 41 44 48 49 49 55 57 54 49 46 41 37 36
44 31 30 29 26 24 24 26 26 23 21 20 19 17 16 16 16 17 17 16 15 15 14 14 14 16 22 30 33 37 45 46 49 50 53 56 54 47 43 37 32 30 26
46 35 29 28 25 25 26 28 27 23 20 19 18 17 17 17 16 15 15 15 15 16 16 16 18 22 30 32 40 49 52 53 55 55 54 53 48 38 30 28 24 22 23
37 36 35 28 27 25 28 30 28 25 22 21 20 19 19 17 17 16 16 16 17 18 20 22 27 37 41 45 51 55 52 52 56 55 50 46 40 31 28 28 28 27 26
41 36 38 35 29 28 29 31 30 27 24 23 23 23 22 21 20 19 20 19 21 24 27 33 45 48 47 58 65 55 54 51 50 50 48 41 30 29 29 29 30 30 29
48 40 40 38 37 37 36 32 30 28 27 26 25 24 24 26 29 37 29 24 26 33 41 48 48 50 49 50 48 46 47 47 48 48 41 29 31 32 32 32 33 33 32
52 45 43 42 41 41 41 35 35 31 30 34 33 29 42 41 57 31 27 31 37 43 50 47 48 49 47 45 43 42 44 43 42 41 31 32 34 34 34 37 39 34 29
56 50 45 39 43 42 42 41 44 42 47 45 41 43 49 45 39 45 52 55 57 59 57 54 58 56 55 54 48 43 49 43 44 38 34 35 37 40 44 42 34 31 25
60 59 48 47 46 45 44 50 52 56 53 52 50 53 51 57 62 68 70 80 86 87 81 77 57 53 53 52 47 48 47 45 41 36 37 40 45 48 45 38 31 27 27
66 63 52 45 50 49 49 55 56 60 55 59 49 52 53 66 73 68 70 84 88 87 81 73 59 59 50 47 43 42 41 47 49 47 48 46 46 42 31 22 27 30 27
72 69 56 52 54 52 52 55 56 56 56 51 54 52 58 67 61 58 63 71 69 72 71 61 56 53 48 45 35 33 32 43 50 45 53 44 40 32 22 23 21 19 23
75 72 60 60 63 57 60 55 53 57 54 56 52 45 51 52 54 56 56 58 63 64 53 49 48 44 41 34 30 24 32 46 55 57 48 47 38 32 29 16 13 11 10
75 73 64 62 63 64 59 56 56 52 58 57 52 49 51 54 57 63 61 58 57 50 50 50 48 44 39 34 35 42 50 57 56 51 55 58 47 26 16 14 9 7 7
75 72 67 64 63 70 62 58 56 54 57 56 55 56 55 56 59 59 60 62 51 49 51 51 47 44 43 46 50 53 59 60 56 55 42 28 21 20 17 13 12 9 8
73 74 71 72 78 73 69 63 59 59 57 56 54 55 56 52 48 47 50 50 54 52 50 48 46 49 51 51 56 59 63 56 43 32 27 23 19 17 16 16 16 13 12
71 77 79 80 83 74 72 64 63 62 60 53 52 49 38 36 33 36 38 41 49 51 51 51 54 55 53 50 56 58 49 36 29 25 26 20 18 16 16 16 14 13 16
71 76 84 88 78 71 73 69 66 64 56 49 48 32 32 30 32 37 40 47 58 58 57 57 58 61 52 49 54 49 39 33 25 23 21 19 18 18 16 14 11 12 16
70 73 88 94 80 75 73 75 71 60 47 49 36 33 33 36 38 43 44 57 64 62 56 53 54 54 47 44 42 47 40 37 28 26 20 19 18 17 16 16 15 14 17
71 71 85 98 89 82 79 79 65 45 48 42 42 41 39 43 38 42 55 56 57 58 56 53 52 49 46 39 37 29 29 29 35 35 26 19 17 17 14 17 16 16 18
75 69 89 98 88 82 81 73 54 47 48 46 44 41 44 47 40 44 47 48 51 51 47 42 44 44 40 36 36 30 28 28 23 25 30 24 19 17 16 17 16 16 18
78 70 82 87 83 79 73 63 51 48 47 45 41 44 47 45 39 30 31 39 41 43 42 38 36 39 39 37 32 30 30 33 34 24 24 22 21 21 17 17 17 17 18